This is the latest recevied weather packets stored in our database for station/object W3TMB. If no packets are shown the sender has not sent any weather packets the latest 10 day(s).
| Time | Temp. | Humidity | Pressure | Rain* | Wind** | Luminosity | Snow |
|---|---|---|---|---|---|---|---|
| 1778120829 | 10° C | 92% | 1009.2 hPa | 0 mm | - | 0 W/m² | - |
| 1778120524 | 10° C | 92% | 1009 hPa | 0 mm | - | 0 W/m² | - |
| 1778120221 | 10.56° C | 92% | 1009.3 hPa | 0 mm | - | 0 W/m² | - |
| 1778119916 | 10.56° C | 92% | 1009.3 hPa | 0 mm | - | 0 W/m² | - |
| 1778119615 | 10.56° C | 92% | 1009.6 hPa | 0 mm | - | 0 W/m² | - |
| 1778119311 | 10.56° C | 92% | 1009.3 hPa | 0 mm | - | 0 W/m² | - |
| 1778119009 | 10.56° C | 92% | 1009.6 hPa | 0 mm | - | 0 W/m² | - |
| 1778118706 | 10.56° C | 92% | 1009.4 hPa | 0 mm | - | 0 W/m² | - |
| 1778118402 | 10.56° C | 92% | 1009.9 hPa | 0 mm | - | 0 W/m² | - |
| 1778118098 | 11.11° C | 91% | 1009.4 hPa | 0 mm | - | 0 W/m² | - |
| 1778117796 | 11.11° C | 91% | 1009.2 hPa | 0 mm | - | 0 W/m² | - |
| 1778117493 | 11.11° C | 91% | 1009.5 hPa | 0 mm | - | 0 W/m² | - |
| 1778117190 | 11.67° C | 89% | 1009.3 hPa | 0 mm | - | 0 W/m² | - |
| 1778116885 | 11.67° C | 88% | 1009.3 hPa | 0 mm | - | 0 W/m² | - |
| 1778116584 | 11.67° C | 87% | 1009.5 hPa | 0 mm | - | 0 W/m² | - |
| 1778116280 | 11.67° C | 90% | 1009.4 hPa | 0 mm | - | 0 W/m² | - |
| 1778115975 | 11.67° C | 89% | 1009.7 hPa | 0 mm | - | 0 W/m² | - |
| 1778115671 | 11.67° C | 89% | 1009.5 hPa | 0 mm | - | 0 W/m² | - |
| 1778115369 | 11.67° C | 89% | 1009.3 hPa | 0 mm | - | 0 W/m² | - |
| 1778115064 | 11.67° C | 91% | 1009.2 hPa | 0 mm | - | 0 W/m² | - |
| 1778114761 | 11.67° C | 91% | 1009.1 hPa | 0 mm | - | 0 W/m² | - |
| 1778114459 | 12.22° C | 92% | 1009.2 hPa | 0 mm | - | 0 W/m² | - |
| 1778114154 | 12.22° C | 91% | 1009 hPa | 0 mm | - | 0 W/m² | - |
| 1778113850 | 12.22° C | 91% | 1009 hPa | 0 mm | - | 0 W/m² | - |
| 1778113547 | 12.22° C | 91% | 1008.8 hPa | 0 mm | - | 0 W/m² | - |
* Rain latest hour (hover to see other rain measurements)
** Current wind speed in m/s (hover to see current wind gust speed)